Private Wetterstation Wechselburg
Wetterdaten: Freitag, 24.12.2021
Datum Zeit Temp. +2m Bodentemp. Temp.+5cm Temp. Wind Windchill X Diff Temp. Feuchte +2m Feuchte +5cm Luftdruck Regen Wind Richtung Richtung Sonnenschein Taupunkt Windchill Windben
24.12.2021 00:00 4,3 C 5,2 C 3,5 C 3,8 C 2,8 C 0,0 C 87 % 91 % 1005,7 hPa 0,0 l/m 7,4 km/h (2 Bft) S-SW 202 0 min 2,3 C 0,7 C 12,7 km/h (3 Bft)
24.12.2021 00:05 4,4 C 5,2 C 3,7 C 3,9 C 2,8 C 0,0 C 87 % 91 % 1005,7 hPa 0,0 l/m 7,9 km/h (2 Bft) SW 225 0 min 2,4 C 0,6 C 13,2 km/h (3 Bft)
24.12.2021 00:10 4,5 C 5,3 C 3,7 C 3,9 C 2,8 C 0,0 C 87 % 91 % 1005,7 hPa 0,0 l/m 8,2 km/h (2 Bft) W-SW 247 0 min 2,5 C 0,5 C 13,2 km/h (3 Bft)
24.12.2021 00:15 4,6 C 5,3 C 3,7 C 4,0 C 2,8 C 0,0 C 87 % 91 % 1005,7 hPa 0,0 l/m 7,9 km/h (2 Bft) SW 225 0 min 2,6 C 0,6 C 15,4 km/h (3 Bft)
24.12.2021 00:20 4,7 C 5,3 C 3,8 C 4,2 C 3,1 C 0,0 C 86 % 91 % 1005,7 hPa 0,0 l/m 6,9 km/h (2 Bft) SW 225 0 min 2,6 C 1,2 C 6,1 km/h (2 Bft)
24.12.2021 00:25 4,7 C 5,3 C 3,8 C 4,3 C 2,8 C 0,0 C 86 % 91 % 1005,7 hPa 0,0 l/m 8,2 km/h (2 Bft) W-SW 247 0 min 2,6 C 0,5 C 12,9 km/h (3 Bft)
24.12.2021 00:30 4,7 C 5,3 C 3,8 C 4,1 C 2,9 C 0,0 C 86 % 91 % 1005,6 hPa 0,0 l/m 7,6 km/h (2 Bft) W 270 0 min 2,6 C 0,8 C 3,9 km/h (1 Bft)
24.12.2021 00:35 4,8 C 5,3 C 3,9 C 4,3 C 2,6 C 0,0 C 86 % 92 % 1005,6 hPa 0,0 l/m 8,9 km/h (2 Bft) SW 225 0 min 2,7 C 0,1 C 18,5 km/h (3 Bft)
24.12.2021 00:40 4,9 C 5,3 C 3,9 C 4,4 C 2,7 C 0,0 C 87 % 92 % 1005,6 hPa 0,0 l/m 8,7 km/h (2 Bft) SW 225 0 min 2,9 C 0,2 C 13,7 km/h (3 Bft)
24.12.2021 00:45 4,9 C 5,3 C 4,0 C 4,5 C 3,0 C 0,0 C 87 % 92 % 1005,6 hPa 0,0 l/m 8,5 km/h (2 Bft) SW 225 0 min 2,9 C 0,6 C 14,0 km/h (3 Bft)
24.12.2021 00:50 5,0 C 5,4 C 4,0 C 4,6 C 3,1 C 0,0 C 87 % 92 % 1005,1 hPa 0,0 l/m 8,9 km/h (2 Bft) NW 315 0 min 3,0 C 0,7 C 3,5 km/h (1 Bft)
24.12.2021 00:55 5,1 C 5,5 C 4,0 C 4,6 C 2,7 C 0,0 C 87 % 92 % 1005,1 hPa 0,7 l/m 10,0 km/h (2 Bft) SW 225 0 min 3,1 C -0,1 C 20,0 km/h (4 Bft)
24.12.2021 01:00 5,1 C 5,6 C 4,0 C 4,3 C 2,7 C 0,0 C 87 % 92 % 1005,1 hPa 0,0 l/m 9,8 km/h (2 Bft) SW 225 0 min 3,1 C -0,0 C 16,4 km/h (3 Bft)
24.12.2021 01:05 4,9 C 5,6 C 3,9 C 4,4 C 2,3 C 0,0 C 87 % 92 % 1005,1 hPa 0,0 l/m 10,6 km/h (2 Bft) S-SW 202 0 min 2,9 C -0,7 C 23,0 km/h (4 Bft)
24.12.2021 01:10 4,9 C 5,6 C 3,9 C 4,0 C 2,3 C 0,0 C 87 % 92 % 1005,0 hPa 0,0 l/m 10,3 km/h (2 Bft) W-SW 247 0 min 2,9 C -0,6 C 12,7 km/h (3 Bft)
24.12.2021 01:15 4,9 C 5,7 C 3,9 C 4,3 C 2,6 C 0,0 C 88 % 93 % 1005,0 hPa 0,0 l/m 9,3 km/h (2 Bft) SW 225 0 min 3,1 C -0,0 C 12,6 km/h (3 Bft)
24.12.2021 01:20 4,8 C 5,7 C 3,9 C 4,3 C 2,9 C 0,0 C 88 % 93 % 1005,0 hPa 0,7 l/m 7,9 km/h (2 Bft) S 180 0 min 3,0 C 0,7 C 11,9 km/h (2 Bft)
24.12.2021 01:25 4,9 C 5,7 C 3,9 C 4,3 C 3,1 C 0,0 C 88 % 94 % 1005,0 hPa 0,0 l/m 7,1 km/h (2 Bft) S 180 0 min 3,1 C 1,2 C 6,3 km/h (2 Bft)
24.12.2021 01:30 4,8 C 5,7 C 3,9 C 4,2 C 2,9 C 0,0 C 88 % 94 % 1004,6 hPa 0,0 l/m 7,6 km/h (2 Bft) SO 135 0 min 3,0 C 0,8 C 9,0 km/h (2 Bft)
24.12.2021 01:35 4,8 C 5,7 C 3,9 C 4,2 C 3,1 C 0,0 C 88 % 94 % 1004,6 hPa 0,0 l/m 6,8 km/h (2 Bft) SW 225 0 min 3,0 C 1,3 C 8,2 km/h (2 Bft)
24.12.2021 01:40 4,7 C 5,7 C 3,9 C 4,4 C 3,7 C 0,0 C 88 % 94 % 1004,6 hPa 0,7 l/m 5,1 km/h (1 Bft) W 270 0 min 2,9 C 2,6 C 4,8 km/h (1 Bft)
24.12.2021 01:45 4,7 C 5,7 C 3,9 C 4,5 C 4,2 C 0,0 C 88 % 94 % 1004,6 hPa 0,0 l/m 4,0 km/h (1 Bft) S-SO 157 0 min 2,9 C 4,2 C 10,5 km/h (2 Bft)
24.12.2021 01:50 4,7 C 5,7 C 3,8 C 4,4 C 3,9 C 0,0 C 88 % 94 % 1004,8 hPa 0,0 l/m 4,3 km/h (1 Bft) SW 225 0 min 2,9 C 3,9 C 6,3 km/h (2 Bft)
24.12.2021 01:55 4,5 C 5,7 C 3,7 C 4,1 C 3,3 C 0,0 C 88 % 94 % 1004,8 hPa 0,0 l/m 5,5 km/h (1 Bft) NW 315 0 min 2,7 C 2,0 C 6,3 km/h (2 Bft)
24.12.2021 02:00 4,5 C 5,7 C 3,7 C 4,1 C 3,2 C 0,0 C 88 % 94 % 1004,8 hPa 0,0 l/m 6,0 km/h (2 Bft) W-SW 247 0 min 2,7 C 1,7 C 10,5 km/h (2 Bft)
24.12.2021 02:05 4,4 C 5,7 C 3,7 C 3,9 C 2,8 C 0,0 C 88 % 94 % 1004,8 hPa 0,0 l/m 6,8 km/h (2 Bft) SW 225 0 min 2,6 C 0,9 C 5,3 km/h (1 Bft)
24.12.2021 02:10 4,4 C 5,7 C 3,7 C 3,9 C 2,9 C 0,0 C 88 % 94 % 1004,3 hPa 0,7 l/m 6,3 km/h (2 Bft) S 180 0 min 2,6 C 1,2 C 6,6 km/h (2 Bft)
24.12.2021 02:15 4,4 C 5,7 C 3,6 C 3,9 C 2,9 C 0,0 C 88 % 94 % 1004,3 hPa 0,0 l/m 6,1 km/h (2 Bft) SW 225 0 min 2,6 C 1,3 C 6,4 km/h (2 Bft)
24.12.2021 02:20 4,3 C 5,9 C 3,6 C 3,9 C 3,1 C 0,0 C 89 % 94 % 1004,3 hPa 0,0 l/m 5,8 km/h (2 Bft) S 180 0 min 2,7 C 1,6 C 2,7 km/h (1 Bft)
24.12.2021 02:25 4,3 C 5,9 C 3,6 C 3,9 C 3,1 C 0,0 C 88 % 94 % 1004,3 hPa 0,7 l/m 5,6 km/h (1 Bft) SW 225 0 min 2,5 C 1,7 C 6,9 km/h (2 Bft)
24.12.2021 02:30 4,2 C 5,9 C 3,6 C 3,7 C 2,8 C 0,0 C 89 % 94 % 1004,3 hPa 0,0 l/m 6,8 km/h (2 Bft) W 270 0 min 2,6 C 0,9 C 10,3 km/h (2 Bft)
24.12.2021 02:35 4,3 C 5,9 C 3,7 C 3,8 C 2,7 C 0,0 C 89 % 95 % 1004,3 hPa 0,0 l/m 7,4 km/h (2 Bft) SW 225 0 min 2,7 C 0,6 C 5,6 km/h (1 Bft)
24.12.2021 02:40 4,3 C 5,9 C 3,7 C 3,8 C 2,8 C 0,0 C 89 % 95 % 1004,3 hPa 0,7 l/m 6,9 km/h (2 Bft) S 180 0 min 2,7 C 0,9 C 9,8 km/h (2 Bft)
24.12.2021 02:45 4,3 C 5,9 C 3,8 C 4,0 C 2,6 C 0,0 C 89 % 95 % 1004,3 hPa 0,0 l/m 8,5 km/h (2 Bft) SW 225 0 min 2,7 C 0,2 C 16,4 km/h (3 Bft)
24.12.2021 02:50 4,3 C 5,9 C 3,8 C 3,9 C 2,3 C 0,0 C 89 % 95 % 1004,6 hPa 0,0 l/m 9,3 km/h (2 Bft) SW 225 0 min 2,7 C -0,4 C 16,4 km/h (3 Bft)
24.12.2021 02:55 4,3 C 6,0 C 3,8 C 3,9 C 2,5 C 0,0 C 89 % 95 % 1004,6 hPa 0,0 l/m 9,3 km/h (2 Bft) S 180 0 min 2,7 C -0,2 C 15,4 km/h (3 Bft)
24.12.2021 03:00 4,3 C 6,0 C 3,9 C 4,0 C 2,6 C 0,0 C 89 % 95 % 1004,6 hPa 0,0 l/m 8,9 km/h (2 Bft) W 270 0 min 2,7 C 0,1 C 7,1 km/h (2 Bft)
24.12.2021 03:05 4,3 C 6,0 C 3,9 C 4,0 C 2,9 C 0,0 C 89 % 95 % 1004,6 hPa 0,7 l/m 7,7 km/h (2 Bft) W-SW 247 0 min 2,7 C 0,8 C 9,3 km/h (2 Bft)
24.12.2021 03:10 4,3 C 6,0 C 3,9 C 3,9 C 3,1 C 0,0 C 89 % 95 % 1004,4 hPa 0,0 l/m 7,2 km/h (2 Bft) W-SW 247 0 min 2,7 C 1,1 C 7,7 km/h (2 Bft)
24.12.2021 03:15 4,3 C 6,0 C 4,0 C 4,0 C 2,8 C 0,0 C 89 % 95 % 1004,4 hPa 0,0 l/m 8,0 km/h (2 Bft) S-SW 202 0 min 2,7 C 0,6 C 16,1 km/h (3 Bft)
24.12.2021 03:20 4,3 C 6,0 C 4,0 C 4,1 C 3,0 C 0,0 C 89 % 95 % 1004,4 hPa 0,0 l/m 8,5 km/h (2 Bft) W 270 0 min 2,7 C 0,6 C 9,7 km/h (2 Bft)
24.12.2021 03:25 4,3 C 6,1 C 4,0 C 4,1 C 3,1 C 0,0 C 89 % 95 % 1004,4 hPa 0,7 l/m 8,4 km/h (2 Bft) SW 225 0 min 2,7 C 0,8 C 9,2 km/h (2 Bft)
24.12.2021 03:30 4,3 C 6,1 C 4,0 C 3,9 C 3,1 C 0,0 C 89 % 95 % 1004,1 hPa 0,0 l/m 8,0 km/h (2 Bft) W-SW 247 0 min 2,7 C 0,9 C 6,9 km/h (2 Bft)
24.12.2021 03:35 4,3 C 6,1 C 4,1 C 3,9 C 3,1 C 0,0 C 89 % 95 % 1004,1 hPa 0,0 l/m 7,9 km/h (2 Bft) SW 225 0 min 2,7 C 0,9 C 17,4 km/h (3 Bft)
24.12.2021 03:40 4,3 C 6,1 C 4,1 C 3,9 C 3,1 C 0,0 C 89 % 95 % 1004,1 hPa 0,7 l/m 8,0 km/h (2 Bft) SW 225 0 min 2,7 C 0,9 C 11,4 km/h (2 Bft)
24.12.2021 03:45 4,4 C 6,1 C 4,1 C 4,0 C 3,1 C 0,0 C 88 % 95 % 1004,1 hPa 0,0 l/m 8,5 km/h (2 Bft) S-SO 157 0 min 2,6 C 0,8 C 13,2 km/h (3 Bft)
24.12.2021 03:50 4,3 C 6,1 C 4,2 C 4,1 C 3,2 C 0,0 C 88 % 95 % 1004,1 hPa 0,0 l/m 8,2 km/h (2 Bft) W-SW 247 0 min 2,5 C 1,0 C 8,7 km/h (2 Bft)
24.12.2021 03:55 4,3 C 6,2 C 4,2 C 4,2 C 3,4 C 0,0 C 88 % 95 % 1004,1 hPa 0,7 l/m 7,9 km/h (2 Bft) S-SO 157 0 min 2,5 C 1,3 C 10,1 km/h (2 Bft)
24.12.2021 04:00 4,3 C 6,2 C 4,3 C 4,1 C 3,6 C 0,0 C 88 % 95 % 1004,1 hPa 0,0 l/m 7,1 km/h (2 Bft) SW 225 0 min 2,5 C 1,8 C 12,4 km/h (3 Bft)
24.12.2021 04:05 4,4 C 6,2 C 4,3 C 4,2 C 3,7 C 0,0 C 88 % 95 % 1004,1 hPa 0,0 l/m 6,8 km/h (2 Bft) S 180 0 min 2,6 C 2,0 C 10,1 km/h (2 Bft)
24.12.2021 04:10 4,4 C 6,2 C 4,3 C 4,1 C 3,6 C 0,0 C 88 % 95 % 1003,9 hPa 0,7 l/m 7,1 km/h (2 Bft) W-NW 292 0 min 2,6 C 1,8 C 14,2 km/h (3 Bft)
24.12.2021 04:15 4,4 C 6,3 C 4,4 C 4,2 C 3,9 C 0,0 C 88 % 95 % 1003,9 hPa 0,0 l/m 6,4 km/h (2 Bft) S 180 0 min 2,6 C 2,3 C 8,7 km/h (2 Bft)
24.12.2021 04:20 4,5 C 6,3 C 4,4 C 4,3 C 4,0 C 0,0 C 88 % 95 % 1003,9 hPa 0,0 l/m 6,1 km/h (2 Bft) W-SW 247 0 min 2,7 C 2,5 C 8,7 km/h (2 Bft)
24.12.2021 04:25 4,4 C 6,3 C 4,4 C 4,3 C 4,0 C 0,0 C 88 % 95 % 1003,9 hPa 0,0 l/m 6,4 km/h (2 Bft) S-SW 202 0 min 2,6 C 2,4 C 4,8 km/h (1 Bft)
24.12.2021 04:30 4,5 C 6,4 C 4,4 C 4,3 C 3,9 C 0,0 C 88 % 95 % 1003,9 hPa 0,7 l/m 6,6 km/h (2 Bft) S 180 0 min 2,7 C 2,3 C 6,3 km/h (2 Bft)
24.12.2021 04:35 4,4 C 6,4 C 4,5 C 4,4 C 4,3 C 0,0 C 88 % 95 % 1003,9 hPa 0,0 l/m 5,5 km/h (1 Bft) W-SW 247 0 min 2,6 C 3,1 C 9,5 km/h (2 Bft)
24.12.2021 04:40 4,4 C 6,4 C 4,5 C 4,4 C 4,4 C 0,0 C 88 % 95 % 1003,9 hPa 0,0 l/m 5,3 km/h (1 Bft) N 360 0 min 2,6 C 3,3 C 6,0 km/h (2 Bft)
24.12.2021 04:45 4,4 C 6,5 C 4,5 C 4,5 C 4,5 C 0,1 C 88 % 95 % 1003,9 hPa 0,7 l/m 5,0 km/h (1 Bft) W 270 0 min 2,6 C 3,5 C 6,1 km/h (2 Bft)
24.12.2021 04:50 4,4 C 6,5 C 4,5 C 4,7 C 4,7 C 0,3 C 88 % 95 % 1003,7 hPa 0,0 l/m 4,7 km/h (1 Bft) W-SW 247 0 min 2,6 C 3,9 C 2,6 km/h (1 Bft)
24.12.2021 04:55 4,4 C 6,5 C 4,5 C 4,5 C 4,5 C 0,1 C 88 % 95 % 1003,7 hPa 0,0 l/m 5,3 km/h (1 Bft) S 180 0 min 2,6 C 3,4 C 7,7 km/h (2 Bft)
24.12.2021 05:00 4,4 C 6,5 C 4,5 C 4,4 C 4,4 C 0,0 C 88 % 95 % 1003,7 hPa 0,7 l/m 5,5 km/h (1 Bft) W-SW 247 0 min 2,6 C 3,2 C 6,4 km/h (2 Bft)
24.12.2021 05:05 4,4 C 6,6 C 4,5 C 4,4 C 4,3 C 0,0 C 88 % 95 % 1003,7 hPa 0,0 l/m 6,0 km/h (2 Bft) W-SW 247 0 min 2,6 C 2,9 C 6,4 km/h (2 Bft)
24.12.2021 05:10 4,4 C 6,6 C 4,6 C 4,4 C 4,4 C 0,0 C 88 % 95 % 1003,6 hPa 0,0 l/m 5,6 km/h (1 Bft) S 180 0 min 2,6 C 3,2 C 8,5 km/h (2 Bft)
24.12.2021 05:15 4,4 C 6,6 C 4,6 C 4,4 C 4,4 C 0,0 C 88 % 95 % 1003,6 hPa 0,0 l/m 5,5 km/h (1 Bft) W-SW 247 0 min 2,6 C 3,2 C 4,5 km/h (1 Bft)
24.12.2021 05:20 4,4 C 6,6 C 4,6 C 4,7 C 4,7 C 0,3 C 88 % 95 % 1003,6 hPa 0,0 l/m 5,0 km/h (1 Bft) W-SW 247 0 min 2,6 C 3,7 C 3,7 km/h (1 Bft)
24.12.2021 05:25 4,4 C 6,7 C 4,7 C 4,7 C 4,7 C 0,3 C 88 % 95 % 1003,6 hPa 0,0 l/m 5,3 km/h (1 Bft) S 180 0 min 2,6 C 3,6 C 7,4 km/h (2 Bft)
24.12.2021 05:30 4,4 C 6,7 C 4,7 C 4,6 C 4,6 C 0,2 C 88 % 95 % 1003,4 hPa 0,7 l/m 5,5 km/h (1 Bft) W-SW 247 0 min 2,6 C 3,4 C 4,0 km/h (1 Bft)
24.12.2021 05:35 4,4 C 6,7 C 4,7 C 5,1 C 5,1 C 0,7 C 88 % 95 % 1003,4 hPa 0,0 l/m 4,5 km/h (1 Bft) W 270 0 min 2,6 C 5,1 C 3,2 km/h (1 Bft)
24.12.2021 05:40 4,4 C 6,7 C 4,7 C 5,6 C 5,6 C 1,2 C 88 % 95 % 1003,4 hPa 0,0 l/m 3,5 km/h (1 Bft) W-NW 292 0 min 2,6 C 5,6 C 2,9 km/h (1 Bft)
24.12.2021 05:45 4,4 C 6,7 C 4,7 C 5,2 C 5,2 C 0,8 C 88 % 95 % 1003,4 hPa 0,0 l/m 4,2 km/h (1 Bft) S 180 0 min 2,6 C 5,2 C 7,4 km/h (2 Bft)
24.12.2021 05:50 4,4 C 6,7 C 4,8 C 4,9 C 4,9 C 0,5 C 88 % 95 % 1003,2 hPa 0,0 l/m 4,8 km/h (1 Bft) S-SO 157 0 min 2,6 C 4,0 C 8,0 km/h (2 Bft)
24.12.2021 05:55 4,5 C 6,8 C 4,8 C 4,8 C 4,8 C 0,3 C 88 % 95 % 1003,2 hPa 0,0 l/m 5,3 km/h (1 Bft) SW 225 0 min 2,7 C 3,7 C 7,1 km/h (2 Bft)
24.12.2021 06:00 4,5 C 6,8 C 4,8 C 4,8 C 4,8 C 0,3 C 88 % 95 % 1003,2 hPa 0,0 l/m 5,5 km/h (1 Bft) SW 225 0 min 2,7 C 3,7 C 6,1 km/h (2 Bft)
24.12.2021 06:05 4,4 C 6,8 C 4,8 C 4,9 C 4,9 C 0,5 C 88 % 95 % 1003,2 hPa 0,0 l/m 5,1 km/h (1 Bft) SW 225 0 min 2,6 C 3,9 C 8,7 km/h (2 Bft)
24.12.2021 06:10 4,4 C 6,8 C 4,9 C 4,9 C 4,9 C 0,5 C 88 % 95 % 1003,1 hPa 0,0 l/m 5,1 km/h (1 Bft) W-SW 247 0 min 2,6 C 3,9 C 6,9 km/h (2 Bft)
24.12.2021 06:15 4,4 C 6,8 C 4,9 C 4,8 C 4,8 C 0,4 C 88 % 95 % 1003,1 hPa 0,0 l/m 5,5 km/h (1 Bft) W-SW 247 0 min 2,6 C 3,7 C 9,8 km/h (2 Bft)
24.12.2021 06:20 4,5 C 6,8 C 5,0 C 4,8 C 4,8 C 0,3 C 88 % 95 % 1003,1 hPa 0,0 l/m 5,6 km/h (1 Bft) SW 225 0 min 2,7 C 3,6 C 8,2 km/h (2 Bft)
24.12.2021 06:25 4,6 C 6,8 C 5,1 C 4,8 C 4,8 C 0,2 C 88 % 95 % 1003,1 hPa 0,0 l/m 6,1 km/h (2 Bft) SW 225 0 min 2,8 C 3,5 C 7,4 km/h (2 Bft)
24.12.2021 06:30 4,7 C 6,8 C 5,1 C 4,9 C 4,9 C 0,2 C 88 % 95 % 1003,0 hPa 0,0 l/m 6,0 km/h (2 Bft) W-SW 247 0 min 2,9 C 3,6 C 6,1 km/h (2 Bft)
24.12.2021 06:35 4,6 C 6,9 C 5,2 C 4,9 C 4,9 C 0,3 C 88 % 95 % 1003,0 hPa 0,0 l/m 6,4 km/h (2 Bft) S-SW 202 0 min 2,8 C 3,5 C 11,3 km/h (2 Bft)
24.12.2021 06:40 4,8 C 6,9 C 5,2 C 4,8 C 4,8 C 0,0 C 88 % 95 % 1003,0 hPa 0,0 l/m 7,4 km/h (2 Bft) S 180 0 min 3,0 C 3,1 C 9,0 km/h (2 Bft)
24.12.2021 06:45 4,8 C 6,9 C 5,4 C 5,3 C 4,7 C 0,5 C 88 % 95 % 1003,0 hPa 0,0 l/m 8,5 km/h (2 Bft) SW 225 0 min 3,0 C 2,7 C 8,9 km/h (2 Bft)
24.12.2021 06:50 4,9 C 6,9 C 5,5 C 4,9 C 4,8 C 0,0 C 89 % 95 % 1002,9 hPa 0,0 l/m 7,6 km/h (2 Bft) SW 225 0 min 3,2 C 3,0 C 6,1 km/h (2 Bft)
24.12.2021 06:55 5,1 C 6,9 C 5,4 C 5,3 C 5,3 C 0,2 C 89 % 95 % 1002,9 hPa 0,0 l/m 6,3 km/h (2 Bft) S-SW 202 0 min 3,4 C 4,0 C 5,0 km/h (1 Bft)
24.12.2021 07:00 5,1 C 6,9 C 5,5 C 5,4 C 5,4 C 0,3 C 89 % 95 % 1002,9 hPa 0,0 l/m 6,3 km/h (2 Bft) W-SW 247 0 min 3,4 C 4,1 C 8,9 km/h (2 Bft)
24.12.2021 07:05 5,1 C 6,9 C 5,5 C 5,8 C 5,2 C 0,7 C 89 % 95 % 1002,9 hPa 0,0 l/m 7,7 km/h (2 Bft) SW 225 0 min 3,4 C 3,4 C 10,1 km/h (2 Bft)
24.12.2021 07:10 5,1 C 6,9 C 5,6 C 5,7 C 5,1 C 0,6 C 88 % 95 % 1002,6 hPa 0,0 l/m 8,2 km/h (2 Bft) SW 225 0 min 3,3 C 3,2 C 8,0 km/h (2 Bft)
24.12.2021 07:15 5,2 C 6,9 C 5,7 C 5,7 C 5,2 C 0,5 C 88 % 95 % 1002,6 hPa 0,0 l/m 8,5 km/h (2 Bft) SW 225 0 min 3,4 C 3,2 C 13,8 km/h (3 Bft)
24.12.2021 07:20 5,3 C 6,9 C 5,8 C 5,8 C 5,3 C 0,5 C 88 % 95 % 1002,6 hPa 0,0 l/m 8,7 km/h (2 Bft) W-SW 247 0 min 3,5 C 3,3 C 10,3 km/h (2 Bft)
24.12.2021 07:25 5,5 C 6,9 C 5,9 C 6,1 C 5,8 C 0,6 C 88 % 95 % 1002,6 hPa 0,0 l/m 7,7 km/h (2 Bft) W-SW 247 0 min 3,7 C 4,2 C 8,4 km/h (2 Bft)
24.12.2021 07:30 5,5 C 6,9 C 5,9 C 6,0 C 6,0 C 0,5 C 88 % 95 % 1002,8 hPa 0,0 l/m 7,2 km/h (2 Bft) W 270 0 min 3,7 C 4,5 C 9,7 km/h (2 Bft)
24.12.2021 07:35 5,5 C 6,9 C 5,9 C 6,4 C 5,9 C 0,9 C 88 % 95 % 1002,8 hPa 0,0 l/m 7,9 km/h (2 Bft) W-SW 247 0 min 3,7 C 4,2 C 10,3 km/h (2 Bft)
24.12.2021 07:40 5,6 C 6,9 C 5,9 C 6,5 C 6,0 C 0,9 C 88 % 95 % 1002,8 hPa 0,0 l/m 8,2 km/h (2 Bft) S 180 0 min 3,8 C 4,3 C 7,7 km/h (2 Bft)
24.12.2021 07:45 5,6 C 6,9 C 6,0 C 6,0 C 6,0 C 0,4 C 88 % 95 % 1002,8 hPa 0,0 l/m 8,2 km/h (2 Bft) SW 225 0 min 3,8 C 4,3 C 7,7 km/h (2 Bft)
24.12.2021 07:50 5,6 C 7,0 C 6,1 C 6,6 C 6,2 C 1,0 C 88 % 95 % 1002,8 hPa 0,0 l/m 8,0 km/h (2 Bft) SW 225 0 min 3,8 C 4,5 C 11,1 km/h (2 Bft)
24.12.2021 07:55 5,7 C 7,0 C 6,1 C 6,7 C 6,1 C 1,0 C 88 % 95 % 1002,8 hPa 0,0 l/m 9,0 km/h (2 Bft) S-SW 202 0 min 3,9 C 4,2 C 10,3 km/h (2 Bft)
24.12.2021 08:00 5,8 C 7,0 C 6,1 C 6,5 C 5,9 C 0,7 C 88 % 95 % 1002,8 hPa 0,0 l/m 9,3 km/h (2 Bft) SO 135 0 min 4,0 C 3,9 C 12,7 km/h (3 Bft)
24.12.2021 08:05 5,8 C 7,0 C 6,2 C 6,4 C 5,8 C 0,6 C 88 % 95 % 1002,8 hPa 0,0 l/m 9,7 km/h (2 Bft) S 180 0 min 4,0 C 3,7 C 10,9 km/h (2 Bft)
24.12.2021 08:10 5,9 C 7,0 C 6,2 C 6,5 C 5,9 C 0,6 C 88 % 95 % 1002,9 hPa 0,0 l/m 10,0 km/h (2 Bft) SW 225 0 min 4,1 C 3,7 C 15,1 km/h (3 Bft)
24.12.2021 08:15 6,0 C 7,0 C 6,2 C 6,6 C 6,1 C 0,6 C 88 % 95 % 1002,9 hPa 0,0 l/m 9,3 km/h (2 Bft) SW 225 0 min 4,2 C 4,1 C 10,1 km/h (2 Bft)
24.12.2021 08:20 6,1 C 6,9 C 6,3 C 6,7 C 6,2 C 0,6 C 88 % 95 % 1002,9 hPa 0,0 l/m 9,8 km/h (2 Bft) S 180 0 min 4,3 C 4,1 C 10,1 km/h (2 Bft)
24.12.2021 08:25 6,3 C 6,9 C 6,3 C 6,3 C 6,2 C 0,0 C 89 % 95 % 1002,9 hPa 0,0 l/m 10,5 km/h (2 Bft) SW 225 0 min 4,6 C 4,0 C 12,2 km/h (2 Bft)
24.12.2021 08:30 6,3 C 6,9 C 6,3 C 6,7 C 6,0 C 0,4 C 88 % 95 % 1002,8 hPa 0,0 l/m 11,3 km/h (2 Bft) S 180 5 min 4,5 C 3,6 C 22,9 km/h (4 Bft)
24.12.2021 08:35 6,4 C 6,9 C 6,3 C 6,6 C 5,9 C 0,2 C 89 % 95 % 1002,8 hPa 0,0 l/m 11,6 km/h (2 Bft) S 180 0 min 4,7 C 3,4 C 11,9 km/h (2 Bft)
24.12.2021 08:40 6,5 C 6,9 C 6,3 C 6,3 C 5,9 C 0,0 C 89 % 95 % 1002,8 hPa 0,0 l/m 12,1 km/h (2 Bft) SW 225 0 min 4,8 C 3,3 C 10,9 km/h (2 Bft)
24.12.2021 08:45 6,7 C 6,9 C 6,4 C 6,7 C 6,0 C 0,0 C 89 % 95 % 1002,8 hPa 0,0 l/m 12,1 km/h (2 Bft) SW 225 0 min 5,0 C 3,5 C 26,4 km/h (4 Bft)
24.12.2021 08:50 6,7 C 7,0 C 6,4 C 6,8 C 6,3 C 0,1 C 88 % 95 % 1002,7 hPa 0,0 l/m 11,1 km/h (2 Bft) SW 225 0 min 4,9 C 4,0 C 8,7 km/h (2 Bft)
24.12.2021 08:55 6,8 C 6,9 C 6,5 C 6,6 C 6,3 C 0,0 C 89 % 95 % 1002,7 hPa 0,0 l/m 10,5 km/h (2 Bft) S 180 0 min 5,1 C 4,1 C 8,9 km/h (2 Bft)
24.12.2021 09:00 6,8 C 6,9 C 6,4 C 6,8 C 6,1 C 0,0 C 89 % 95 % 1002,7 hPa 0,0 l/m 10,8 km/h (2 Bft) S-SW 202 0 min 5,1 C 3,8 C 17,1 km/h (3 Bft)
24.12.2021 09:05 7,1 C 6,9 C 6,6 C 7,0 C 6,2 C 0,0 C 89 % 95 % 1002,7 hPa 0,0 l/m 12,4 km/h (3 Bft) S-SW 202 0 min 5,4 C 3,6 C 20,8 km/h (4 Bft)
24.12.2021 09:10 7,1 C 6,9 C 6,6 C 6,8 C 6,2 C 0,0 C 88 % 95 % 1002,9 hPa 0,0 l/m 13,0 km/h (3 Bft) S-SW 202 0 min 5,2 C 3,5 C 18,3 km/h (3 Bft)
24.12.2021 09:15 7,3 C 6,9 C 6,5 C 6,9 C 6,2 C 0,0 C 88 % 95 % 1002,9 hPa 0,0 l/m 13,2 km/h (3 Bft) W-SW 247 0 min 5,4 C 3,5 C 15,8 km/h (3 Bft)
24.12.2021 09:20 7,5 C 6,9 C 6,5 C 7,3 C 6,4 C 0,0 C 88 % 95 % 1002,9 hPa 0,0 l/m 11,9 km/h (2 Bft) S 180 0 min 5,6 C 4,0 C 10,0 km/h (2 Bft)
24.12.2021 09:25 7,4 C 6,9 C 6,6 C 7,3 C 6,6 C 0,0 C 88 % 95 % 1002,9 hPa 0,0 l/m 10,5 km/h (2 Bft) W-SW 247 0 min 5,5 C 4,5 C 13,4 km/h (3 Bft)
24.12.2021 09:30 7,5 C 6,9 C 6,6 C 7,2 C 6,6 C 0,0 C 88 % 95 % 1002,9 hPa 0,0 l/m 10,5 km/h (2 Bft) S 180 0 min 5,6 C 4,5 C 8,4 km/h (2 Bft)
24.12.2021 09:35 7,6 C 6,9 C 6,7 C 7,3 C 6,6 C 0,0 C 88 % 95 % 1002,9 hPa 0,0 l/m 11,4 km/h (2 Bft) S 180 0 min 5,7 C 4,3 C 17,9 km/h (3 Bft)
24.12.2021 09:40 7,7 C 6,9 C 6,7 C 7,3 C 6,6 C 0,0 C 89 % 94 % 1002,9 hPa 0,0 l/m 11,9 km/h (2 Bft) SW 225 0 min 6,0 C 4,2 C 15,0 km/h (3 Bft)
24.12.2021 09:45 7,9 C 6,9 C 6,8 C 7,7 C 6,7 C 0,0 C 89 % 94 % 1002,9 hPa 0,0 l/m 12,1 km/h (2 Bft) S 180 0 min 6,2 C 4,3 C 14,6 km/h (3 Bft)
24.12.2021 09:50 7,8 C 6,9 C 6,9 C 7,7 C 6,8 C 0,0 C 89 % 94 % 1002,8 hPa 0,0 l/m 11,4 km/h (2 Bft) O-SO 112 0 min 6,1 C 4,5 C 17,9 km/h (3 Bft)
24.12.2021 09:55 8,1 C 6,9 C 6,9 C 7,9 C 7,1 C 0,0 C 88 % 94 % 1002,8 hPa 0,0 l/m 12,2 km/h (2 Bft) SW 225 0 min 6,2 C 4,8 C 21,2 km/h (4 Bft)
24.12.2021 10:00 8,0 C 6,9 C 7,0 C 7,9 C 7,0 C 0,0 C 88 % 94 % 1002,8 hPa 0,0 l/m 12,6 km/h (3 Bft) W-SW 247 0 min 6,1 C 4,6 C 13,4 km/h (3 Bft)
24.12.2021 10:05 8,1 C 7,0 C 7,0 C 7,9 C 6,8 C 0,0 C 88 % 94 % 1002,8 hPa 0,0 l/m 12,4 km/h (3 Bft) SW 225 0 min 6,2 C 4,4 C 15,6 km/h (3 Bft)
24.12.2021 10:10 8,1 C 7,0 C 7,0 C 7,8 C 6,3 C 0,0 C 88 % 94 % 1002,9 hPa 0,0 l/m 13,0 km/h (3 Bft) W-SW 247 0 min 6,2 C 3,7 C 19,8 km/h (3 Bft)
24.12.2021 10:15 8,1 C 7,0 C 6,9 C 7,7 C 5,9 C 0,0 C 88 % 94 % 1002,9 hPa 0,0 l/m 13,4 km/h (3 Bft) W-SW 247 0 min 6,2 C 3,1 C 18,2 km/h (3 Bft)
24.12.2021 10:20 8,0 C 7,0 C 6,9 C 7,3 C 5,9 C 0,0 C 88 % 94 % 1002,9 hPa 0,0 l/m 11,9 km/h (2 Bft) S-SW 202 0 min 6,1 C 3,4 C 13,4 km/h (3 Bft)
24.12.2021 10:25 7,9 C 7,0 C 6,9 C 7,5 C 6,0 C 0,0 C 88 % 94 % 1002,9 hPa 0,0 l/m 10,6 km/h (2 Bft) SW 225 0 min 6,0 C 3,7 C 19,8 km/h (3 Bft)
24.12.2021 10:30 7,9 C 7,0 C 6,9 C 7,5 C 6,1 C 0,0 C 88 % 94 % 1002,9 hPa 0,0 l/m 10,9 km/h (2 Bft) SW 225 0 min 6,0 C 3,8 C 16,1 km/h (3 Bft)
24.12.2021 10:35 8,0 C 7,0 C 7,1 C 7,6 C 6,2 C 0,0 C 88 % 95 % 1002,9 hPa 0,0 l/m 11,9 km/h (2 Bft) W-SW 247 0 min 6,1 C 3,7 C 28,0 km/h (4 Bft)
24.12.2021 10:40 8,0 C 7,0 C 7,2 C 7,7 C 6,5 C 0,0 C 88 % 94 % 1002,9 hPa 0,0 l/m 12,1 km/h (2 Bft) SW 225 0 min 6,1 C 4,1 C 17,7 km/h (3 Bft)
24.12.2021 10:45 8,1 C 7,0 C 7,3 C 7,9 C 6,8 C 0,0 C 88 % 94 % 1002,9 hPa 0,0 l/m 12,1 km/h (2 Bft) SW 225 0 min 6,2 C 4,4 C 12,9 km/h (3 Bft)
24.12.2021 10:50 8,3 C 7,0 C 7,5 C 8,1 C 7,1 C 0,0 C 87 % 94 % 1002,8 hPa 0,0 l/m 12,4 km/h (3 Bft) SW 225 0 min 6,3 C 4,7 C 10,9 km/h (2 Bft)
24.12.2021 10:55 8,3 C 7,0 C 7,5 C 7,9 C 7,1 C 0,0 C 87 % 93 % 1002,8 hPa 0,0 l/m 13,5 km/h (3 Bft) W-SW 247 0 min 6,3 C 4,6 C 10,5 km/h (2 Bft)
24.12.2021 11:00 8,4 C 7,0 C 7,6 C 8,0 C 7,1 C 0,0 C 87 % 93 % 1002,8 hPa 0,0 l/m 14,3 km/h (3 Bft) SW 225 0 min 6,4 C 4,4 C 22,4 km/h (4 Bft)
24.12.2021 11:05 8,4 C 7,0 C 7,7 C 8,2 C 7,2 C 0,0 C 86 % 93 % 1002,8 hPa 0,0 l/m 14,8 km/h (3 Bft) SW 225 0 min 6,2 C 4,5 C 18,7 km/h (3 Bft)
24.12.2021 11:10 8,4 C 7,0 C 7,8 C 8,0 C 7,2 C 0,0 C 86 % 93 % 1002,7 hPa 0,0 l/m 14,8 km/h (3 Bft) S-SO 157 0 min 6,2 C 4,5 C 14,2 km/h (3 Bft)
24.12.2021 11:15 8,4 C 7,1 C 7,9 C 8,3 C 7,8 C 0,0 C 86 % 92 % 1002,7 hPa 0,0 l/m 12,1 km/h (2 Bft) SW 225 0 min 6,2 C 5,6 C 14,8 km/h (3 Bft)
24.12.2021 11:20 8,4 C 7,1 C 7,9 C 8,6 C 8,1 C 0,2 C 86 % 92 % 1002,7 hPa 0,0 l/m 11,4 km/h (2 Bft) SW 225 0 min 6,2 C 6,1 C 12,9 km/h (3 Bft)
24.12.2021 11:25 8,4 C 7,1 C 8,0 C 8,7 C 8,2 C 0,3 C 85 % 91 % 1002,7 hPa 0,0 l/m 11,1 km/h (2 Bft) SW 225 0 min 6,0 C 6,3 C 12,6 km/h (3 Bft)
24.12.2021 11:30 8,5 C 7,1 C 8,1 C 8,8 C 8,3 C 0,3 C 85 % 91 % 1002,5 hPa 0,0 l/m 10,9 km/h (2 Bft) SW 225 0 min 6,1 C 6,4 C 13,5 km/h (3 Bft)
24.12.2021 11:35 8,5 C 7,1 C 8,1 C 8,8 C 8,4 C 0,3 C 85 % 91 % 1002,5 hPa 0,0 l/m 10,1 km/h (2 Bft) W-SW 247 0 min 6,1 C 6,7 C 12,7 km/h (3 Bft)
24.12.2021 11:40 8,7 C 7,1 C 8,1 C 9,0 C 8,7 C 0,3 C 85 % 91 % 1002,5 hPa 0,0 l/m 9,8 km/h (2 Bft) S-SO 157 0 min 6,3 C 7,1 C 9,7 km/h (2 Bft)
24.12.2021 11:45 8,7 C 7,1 C 8,1 C 9,1 C 8,6 C 0,4 C 85 % 91 % 1002,5 hPa 0,0 l/m 9,8 km/h (2 Bft) W-SW 247 0 min 6,3 C 7,0 C 15,0 km/h (3 Bft)
24.12.2021 11:50 8,7 C 7,1 C 8,1 C 9,1 C 8,7 C 0,4 C 85 % 91 % 1002,6 hPa 0,0 l/m 9,2 km/h (2 Bft) S-SW 202 0 min 6,3 C 7,2 C 7,2 km/h (2 Bft)
24.12.2021 11:55 8,6 C 7,1 C 8,2 C 8,7 C 8,7 C 0,1 C 84 % 91 % 1002,6 hPa 0,0 l/m 9,0 km/h (2 Bft) NW 315 0 min 6,1 C 7,3 C 11,7 km/h (2 Bft)
24.12.2021 12:00 8,7 C 7,1 C 8,2 C 8,7 C 8,7 C 0,0 C 84 % 90 % 1002,6 hPa 0,0 l/m 9,0 km/h (2 Bft) S 180 0 min 6,2 C 7,3 C 7,7 km/h (2 Bft)
24.12.2021 12:05 8,7 C 7,1 C 8,1 C 8,9 C 8,4 C 0,2 C 84 % 90 % 1002,6 hPa 0,0 l/m 9,5 km/h (2 Bft) SW 225 0 min 6,2 C 6,8 C 9,3 km/h (2 Bft)
24.12.2021 12:10 8,7 C 7,1 C 8,0 C 8,6 C 8,4 C 0,0 C 84 % 90 % 1002,4 hPa 0,0 l/m 9,3 km/h (2 Bft) W-SW 247 0 min 6,2 C 6,9 C 10,9 km/h (2 Bft)
24.12.2021 12:15 8,7 C 7,1 C 7,9 C 8,6 C 8,4 C 0,0 C 84 % 90 % 1002,4 hPa 0,0 l/m 8,2 km/h (2 Bft) S 180 0 min 6,2 C 7,1 C 7,4 km/h (2 Bft)
24.12.2021 12:20 8,6 C 7,1 C 8,0 C 8,7 C 8,3 C 0,1 C 84 % 90 % 1002,4 hPa 0,0 l/m 7,9 km/h (2 Bft) W-SW 247 0 min 6,1 C 7,0 C 12,1 km/h (2 Bft)
24.12.2021 12:25 8,5 C 7,1 C 7,9 C 8,4 C 8,3 C 0,0 C 84 % 89 % 1002,4 hPa 0,0 l/m 7,6 km/h (2 Bft) SW 225 0 min 6,0 C 7,1 C 14,0 km/h (3 Bft)
24.12.2021 12:30 8,5 C 7,1 C 7,9 C 8,6 C 8,2 C 0,1 C 84 % 89 % 1002,4 hPa 0,0 l/m 8,0 km/h (2 Bft) W-SW 247 0 min 6,0 C 6,9 C 12,4 km/h (3 Bft)
24.12.2021 12:35 8,5 C 7,1 C 7,9 C 8,5 C 8,0 C 0,0 C 84 % 89 % 1002,4 hPa 0,0 l/m 8,7 km/h (2 Bft) S-SO 157 0 min 6,0 C 6,5 C 12,9 km/h (3 Bft)
24.12.2021 12:40 8,5 C 7,1 C 7,9 C 8,3 C 8,0 C 0,0 C 84 % 89 % 1002,4 hPa 0,0 l/m 8,4 km/h (2 Bft) W-SW 247 0 min 6,0 C 6,6 C 7,9 km/h (2 Bft)
24.12.2021 12:45 8,5 C 7,1 C 7,9 C 8,5 C 8,1 C 0,0 C 83 % 88 % 1002,4 hPa 0,0 l/m 7,7 km/h (2 Bft) SW 225 0 min 5,8 C 6,8 C 11,4 km/h (2 Bft)
24.12.2021 12:50 8,5 C 7,1 C 7,9 C 8,5 C 8,4 C 0,0 C 83 % 88 % 1002,2 hPa 0,0 l/m 6,9 km/h (2 Bft) SW 225 0 min 5,8 C 7,4 C 10,8 km/h (2 Bft)
24.12.2021 12:55 8,5 C 7,1 C 8,0 C 8,5 C 8,4 C 0,0 C 83 % 88 % 1002,2 hPa 0,0 l/m 6,8 km/h (2 Bft) SW 225 0 min 5,8 C 7,4 C 7,7 km/h (2 Bft)
24.12.2021 13:00 8,5 C 7,1 C 8,1 C 8,5 C 8,5 C 0,0 C 83 % 88 % 1002,2 hPa 0,0 l/m 7,1 km/h (2 Bft) N-NW 337 0 min 5,8 C 7,5 C 6,1 km/h (2 Bft)
24.12.2021 13:05 8,6 C 7,1 C 8,1 C 8,8 C 8,3 C 0,2 C 83 % 88 % 1002,2 hPa 0,0 l/m 8,5 km/h (2 Bft) S 180 0 min 5,9 C 6,9 C 6,9 km/h (2 Bft)
24.12.2021 13:10 8,6 C 7,1 C 8,1 C 8,6 C 8,1 C 0,0 C 83 % 88 % 1002,1 hPa 0,0 l/m 9,5 km/h (2 Bft) W-SW 247 0 min 5,9 C 6,5 C 11,9 km/h (2 Bft)
24.12.2021 13:15 8,7 C 7,1 C 8,1 C 8,6 C 8,0 C 0,0 C 83 % 88 % 1002,1 hPa 0,0 l/m 10,1 km/h (2 Bft) W-SW 247 0 min 6,0 C 6,2 C 6,6 km/h (2 Bft)
24.12.2021 13:20 8,7 C 7,1 C 8,1 C 8,6 C 7,8 C 0,0 C 82 % 88 % 1002,1 hPa 0,0 l/m 11,4 km/h (2 Bft) SW 225 0 min 5,8 C 5,7 C 13,5 km/h (3 Bft)
24.12.2021 13:25 8,7 C 7,1 C 8,0 C 8,4 C 7,8 C 0,0 C 81 % 87 % 1002,1 hPa 0,0 l/m 11,4 km/h (2 Bft) S-SW 202 0 min 5,6 C 5,7 C 13,7 km/h (3 Bft)
24.12.2021 13:30 8,7 C 7,1 C 8,1 C 8,6 C 7,9 C 0,0 C 81 % 87 % 1002,4 hPa 0,0 l/m 10,8 km/h (2 Bft) S-SO 157 0 min 5,6 C 6,0 C 16,4 km/h (3 Bft)
24.12.2021 13:35 8,7 C 7,1 C 8,0 C 8,6 C 8,0 C 0,0 C 81 % 87 % 1002,4 hPa 0,0 l/m 9,5 km/h (2 Bft) S 180 0 min 5,6 C 6,3 C 10,0 km/h (2 Bft)
24.12.2021 13:40 8,8 C 7,1 C 8,0 C 8,5 C 8,0 C 0,0 C 81 % 86 % 1002,4 hPa 0,0 l/m 9,3 km/h (2 Bft) SW 225 0 min 5,7 C 6,4 C 19,5 km/h (3 Bft)
24.12.2021 13:45 8,7 C 7,1 C 7,9 C 8,6 C 7,9 C 0,0 C 81 % 87 % 1002,4 hPa 0,0 l/m 9,0 km/h (2 Bft) NW 315 0 min 5,6 C 6,3 C 10,5 km/h (2 Bft)
24.12.2021 13:50 8,7 C 7,1 C 7,9 C 8,6 C 8,1 C 0,0 C 81 % 87 % 1002,5 hPa 0,0 l/m 8,4 km/h (2 Bft) SW 225 0 min 5,6 C 6,7 C 9,3 km/h (2 Bft)
24.12.2021 13:55 8,6 C 7,1 C 7,8 C 8,5 C 8,3 C 0,0 C 81 % 87 % 1002,5 hPa 0,0 l/m 7,1 km/h (2 Bft) SW 225 0 min 5,5 C 7,2 C 7,7 km/h (2 Bft)
24.12.2021 14:00 8,7 C 7,1 C 7,8 C 8,5 C 8,2 C 0,0 C 81 % 87 % 1002,5 hPa 0,0 l/m 7,1 km/h (2 Bft) W-SW 247 0 min 5,6 C 7,1 C 6,3 km/h (2 Bft)
24.12.2021 14:05 8,7 C 7,1 C 7,7 C 8,6 C 7,9 C 0,0 C 81 % 87 % 1002,5 hPa 0,0 l/m 7,9 km/h (2 Bft) SW 225 0 min 5,6 C 6,6 C 11,3 km/h (2 Bft)
24.12.2021 14:10 8,5 C 7,1 C 7,7 C 8,4 C 7,8 C 0,0 C 81 % 87 % 1002,1 hPa 0,0 l/m 7,9 km/h (2 Bft) W 270 0 min 5,4 C 6,4 C 10,5 km/h (2 Bft)
24.12.2021 14:15 8,5 C 7,1 C 7,7 C 8,3 C 7,9 C 0,0 C 81 % 86 % 1002,1 hPa 0,0 l/m 7,6 km/h (2 Bft) S 180 0 min 5,4 C 6,6 C 11,9 km/h (2 Bft)
24.12.2021 14:20 8,5 C 7,1 C 7,7 C 8,3 C 7,9 C 0,0 C 81 % 86 % 1002,1 hPa 0,0 l/m 7,7 km/h (2 Bft) S-SO 157 0 min 5,4 C 6,6 C 9,3 km/h (2 Bft)
24.12.2021 14:25 8,4 C 7,1 C 7,6 C 8,1 C 7,6 C 0,0 C 81 % 87 % 1002,1 hPa 0,0 l/m 7,6 km/h (2 Bft) O-SO 112 0 min 5,3 C 6,3 C 7,1 km/h (2 Bft)
24.12.2021 14:30 8,4 C 7,1 C 7,5 C 8,2 C 7,1 C 0,0 C 81 % 87 % 1002,4 hPa 0,0 l/m 8,9 km/h (2 Bft) W-SW 247 0 min 5,3 C 5,4 C 19,3 km/h (3 Bft)
24.12.2021 14:35 8,3 C 7,1 C 7,5 C 7,9 C 6,4 C 0,0 C 82 % 87 % 1002,4 hPa 0,0 l/m 10,6 km/h (2 Bft) W-SW 247 0 min 5,4 C 4,2 C 7,4 km/h (2 Bft)
24.12.2021 14:40 8,3 C 7,1 C 7,4 C 7,9 C 6,6 C 0,0 C 82 % 88 % 1002,4 hPa 0,0 l/m 9,7 km/h (2 Bft) SW 225 0 min 5,4 C 4,6 C 6,6 km/h (2 Bft)
24.12.2021 14:45 8,3 C 7,1 C 7,3 C 7,8 C 6,2 C 0,0 C 82 % 88 % 1002,4 hPa 0,0 l/m 10,1 km/h (2 Bft) S 180 0 min 5,4 C 4,1 C 12,7 km/h (3 Bft)
24.12.2021 14:50 8,1 C 7,1 C 7,3 C 7,7 C 6,1 C 0,0 C 82 % 88 % 1002,6 hPa 0,0 l/m 10,6 km/h (2 Bft) SW 225 0 min 5,2 C 3,9 C 12,6 km/h (3 Bft)
24.12.2021 14:55 8,0 C 7,2 C 7,3 C 7,6 C 6,3 C 0,0 C 83 % 88 % 1002,6 hPa 0,0 l/m 10,1 km/h (2 Bft) SW 225 0 min 5,3 C 4,2 C 16,9 km/h (3 Bft)
24.12.2021 15:00 8,0 C 7,2 C 7,2 C 7,7 C 6,4 C 0,0 C 83 % 88 % 1002,6 hPa 0,0 l/m 10,6 km/h (2 Bft) S-SW 202 0 min 5,3 C 4,2 C 7,1 km/h (2 Bft)
24.12.2021 15:05 8,0 C 7,2 C 7,2 C 7,7 C 6,5 C 0,0 C 83 % 88 % 1002,6 hPa 0,0 l/m 10,3 km/h (2 Bft) SW 225 0 min 5,3 C 4,4 C 16,9 km/h (3 Bft)
24.12.2021 15:10 8,1 C 7,2 C 7,2 C 7,8 C 6,7 C 0,0 C 83 % 88 % 1002,2 hPa 0,0 l/m 9,3 km/h (2 Bft) W-SW 247 0 min 5,4 C 4,8 C 9,8 km/h (2 Bft)
24.12.2021 15:15 8,0 C 7,2 C 7,1 C 7,6 C 6,1 C 0,0 C 83 % 88 % 1002,2 hPa 0,0 l/m 10,6 km/h (2 Bft) SW 225 0 min 5,3 C 3,9 C 11,6 km/h (2 Bft)
24.12.2021 15:20 7,9 C 7,2 C 7,1 C 7,5 C 6,0 C 0,0 C 83 % 89 % 1002,2 hPa 0,0 l/m 10,5 km/h (2 Bft) SW 225 0 min 5,2 C 3,8 C 11,1 km/h (2 Bft)
24.12.2021 15:25 7,7 C 7,2 C 6,9 C 7,3 C 5,9 C 0,0 C 84 % 89 % 1002,2 hPa 0,0 l/m 10,1 km/h (2 Bft) S-SW 202 0 min 5,2 C 3,7 C 17,1 km/h (3 Bft)
24.12.2021 15:30 7,7 C 7,2 C 6,9 C 7,3 C 5,6 C 0,0 C 84 % 89 % 1002,4 hPa 0,0 l/m 10,8 km/h (2 Bft) SW 225 0 min 5,2 C 3,2 C 15,1 km/h (3 Bft)
24.12.2021 15:35 7,6 C 7,2 C 6,7 C 7,1 C 5,3 C 0,0 C 85 % 90 % 1002,4 hPa 0,0 l/m 10,8 km/h (2 Bft) W-SW 247 0 min 5,2 C 2,9 C 9,0 km/h (2 Bft)
24.12.2021 15:40 7,7 C 7,2 C 6,7 C 7,1 C 5,4 C 0,0 C 85 % 90 % 1002,4 hPa 0,0 l/m 10,3 km/h (2 Bft) SW 225 0 min 5,3 C 3,1 C 14,0 km/h (3 Bft)
24.12.2021 15:45 7,7 C 7,2 C 6,7 C 6,9 C 5,4 C 0,0 C 85 % 90 % 1002,4 hPa 0,0 l/m 9,7 km/h (2 Bft) S-SW 202 0 min 5,3 C 3,2 C 9,5 km/h (2 Bft)
24.12.2021 15:50 7,6 C 7,3 C 6,7 C 6,9 C 5,4 C 0,0 C 85 % 90 % 1002,8 hPa 0,0 l/m 9,7 km/h (2 Bft) SW 225 0 min 5,2 C 3,2 C 15,1 km/h (3 Bft)
24.12.2021 15:55 7,6 C 7,3 C 6,7 C 7,1 C 5,6 C 0,0 C 86 % 90 % 1002,8 hPa 0,0 l/m 9,0 km/h (2 Bft) SW 225 0 min 5,4 C 3,6 C 8,2 km/h (2 Bft)
24.12.2021 16:00 7,5 C 7,3 C 6,5 C 6,9 C 5,6 C 0,0 C 86 % 91 % 1002,8 hPa 0,0 l/m 9,2 km/h (2 Bft) SW 225 0 min 5,3 C 3,6 C 12,1 km/h (2 Bft)
24.12.2021 16:05 7,4 C 7,3 C 6,5 C 6,8 C 5,6 C 0,0 C 86 % 91 % 1002,8 hPa 0,0 l/m 8,9 km/h (2 Bft) W-SW 247 0 min 5,2 C 3,6 C 7,7 km/h (2 Bft)
24.12.2021 16:10 7,5 C 7,3 C 6,4 C 7,0 C 5,3 C 0,0 C 86 % 91 % 1002,6 hPa 0,0 l/m 9,2 km/h (2 Bft) SW 225 0 min 5,3 C 3,2 C 11,3 km/h (2 Bft)
24.12.2021 16:15 7,5 C 7,3 C 6,4 C 6,8 C 5,3 C 0,0 C 86 % 92 % 1002,6 hPa 0,0 l/m 9,5 km/h (2 Bft) W-SW 247 0 min 5,3 C 3,1 C 12,6 km/h (3 Bft)
24.12.2021 16:20 7,5 C 7,3 C 6,4 C 7,0 C 5,2 C 0,0 C 86 % 92 % 1002,6 hPa 0,0 l/m 9,8 km/h (2 Bft) SW 225 0 min 5,3 C 2,9 C 9,3 km/h (2 Bft)
24.12.2021 16:25 7,5 C 7,3 C 6,4 C 7,0 C 5,3 C 0,0 C 86 % 92 % 1002,6 hPa 0,0 l/m 10,1 km/h (2 Bft) W-SW 247 0 min 5,3 C 3,0 C 11,6 km/h (2 Bft)
24.12.2021 16:30 7,5 C 7,3 C 6,5 C 7,0 C 5,4 C 0,0 C 86 % 91 % 1002,9 hPa 0,0 l/m 10,6 km/h (2 Bft) W-SW 247 0 min 5,3 C 3,0 C 12,2 km/h (2 Bft)
24.12.2021 16:35 7,6 C 7,3 C 6,6 C 7,1 C 5,7 C 0,0 C 86 % 91 % 1002,9 hPa 0,0 l/m 10,6 km/h (2 Bft) S-SW 202 0 min 5,4 C 3,4 C 10,0 km/h (2 Bft)
24.12.2021 16:40 7,7 C 7,3 C 6,7 C 7,3 C 5,9 C 0,0 C 86 % 91 % 1002,9 hPa 0,0 l/m 10,0 km/h (2 Bft) W-SW 247 0 min 5,5 C 3,7 C 7,4 km/h (2 Bft)
24.12.2021 16:45 7,7 C 7,3 C 6,7 C 7,3 C 6,1 C 0,0 C 85 % 90 % 1002,9 hPa 0,0 l/m 9,0 km/h (2 Bft) W-SW 247 0 min 5,3 C 4,2 C 8,9 km/h (2 Bft)
24.12.2021 16:50 7,6 C 7,3 C 6,7 C 7,3 C 6,2 C 0,0 C 85 % 90 % 1002,4 hPa 0,0 l/m 8,4 km/h (2 Bft) W-SW 247 0 min 5,2 C 4,4 C 8,4 km/h (2 Bft)
24.12.2021 16:55 7,6 C 7,3 C 6,7 C 7,3 C 6,4 C 0,0 C 85 % 90 % 1002,4 hPa 0,0 l/m 8,7 km/h (2 Bft) S 180 0 min 5,2 C 4,6 C 7,1 km/h (2 Bft)
24.12.2021 17:00 7,7 C 7,3 C 6,7 C 7,5 C 6,6 C 0,0 C 85 % 90 % 1002,4 hPa 0,0 l/m 8,5 km/h (2 Bft) SW 225 0 min 5,3 C 4,9 C 9,2 km/h (2 Bft)
24.12.2021 17:05 7,7 C 7,3 C 6,7 C 7,5 C 6,5 C 0,0 C 84 % 90 % 1002,4 hPa 0,0 l/m 8,9 km/h (2 Bft) SW 225 0 min 5,2 C 4,7 C 7,6 km/h (2 Bft)
24.12.2021 17:10 7,7 C 7,3 C 6,7 C 7,5 C 6,6 C 0,0 C 84 % 90 % 1002,4 hPa 0,0 l/m 8,5 km/h (2 Bft) W-SW 247 0 min 5,2 C 4,9 C 12,7 km/h (3 Bft)
24.12.2021 17:15 7,8 C 7,3 C 6,8 C 7,6 C 6,7 C 0,0 C 84 % 89 % 1002,4 hPa 0,0 l/m 9,0 km/h (2 Bft) S 180 0 min 5,3 C 4,9 C 14,0 km/h (3 Bft)
24.12.2021 17:20 7,8 C 7,3 C 6,9 C 7,4 C 6,7 C 0,0 C 83 % 89 % 1002,4 hPa 0,0 l/m 9,3 km/h (2 Bft) S-SO 157 0 min 5,1 C 4,8 C 12,1 km/h (2 Bft)
24.12.2021 17:25 7,9 C 7,3 C 6,8 C 7,5 C 6,7 C 0,0 C 83 % 88 % 1002,4 hPa 0,0 l/m 9,2 km/h (2 Bft) W-SW 247 0 min 5,2 C 4,9 C 14,0 km/h (3 Bft)
24.12.2021 17:30 7,9 C 7,3 C 6,9 C 7,5 C 6,7 C 0,0 C 83 % 88 % 1002,6 hPa 0,0 l/m 9,2 km/h (2 Bft) SW 225 0 min 5,2 C 4,9 C 12,2 km/h (2 Bft)
24.12.2021 17:35 7,8 C 7,3 C 6,9 C 7,4 C 6,7 C 0,0 C 83 % 88 % 1002,6 hPa 0,0 l/m 9,2 km/h (2 Bft) S 180 0 min 5,1 C 4,9 C 10,0 km/h (2 Bft)
24.12.2021 17:40 7,9 C 7,3 C 7,0 C 7,7 C 6,8 C 0,0 C 83 % 88 % 1002,6 hPa 0,0 l/m 9,7 km/h (2 Bft) SW 225 0 min 5,2 C 4,9 C 14,6 km/h (3 Bft)
24.12.2021 17:45 8,0 C 7,3 C 7,1 C 7,8 C 6,7 C 0,0 C 82 % 88 % 1002,6 hPa 0,0 l/m 10,0 km/h (2 Bft) W-SW 247 0 min 5,1 C 4,7 C 14,5 km/h (3 Bft)
24.12.2021 17:50 8,0 C 7,3 C 7,1 C 7,6 C 6,7 C 0,0 C 82 % 87 % 1002,4 hPa 0,0 l/m 10,6 km/h (2 Bft) W-SW 247 0 min 5,1 C 4,6 C 12,9 km/h (3 Bft)
24.12.2021 17:55 8,0 C 7,3 C 7,0 C 7,7 C 6,3 C 0,0 C 82 % 88 % 1002,4 hPa 0,0 l/m 10,5 km/h (2 Bft) W-SW 247 0 min 5,1 C 4,1 C 10,6 km/h (2 Bft)
24.12.2021 18:00 8,0 C 7,4 C 6,8 C 7,6 C 6,4 C 0,0 C 82 % 88 % 1002,4 hPa 0,0 l/m 7,7 km/h (2 Bft) O 90 0 min 5,1 C 4,9 C 2,1 km/h (1 Bft)
24.12.2021 18:05 7,7 C 7,6 C 6,4 C 7,4 C 6,7 C 0,0 C 83 % 89 % 1002,4 hPa 0,0 l/m 4,3 km/h (1 Bft) NW 315 0 min 5,0 C 6,7 C 3,2 km/h (1 Bft)
24.12.2021 18:10 7,2 C 7,6 C 6,1 C 6,9 C 6,4 C 0,0 C 83 % 90 % 1003,3 hPa 0,7 l/m 4,0 km/h (1 Bft) W 270 0 min 4,5 C 6,4 C 13,5 km/h (3 Bft)
24.12.2021 18:15 6,7 C 7,7 C 5,4 C 6,3 C 5,5 C 0,0 C 84 % 90 % 1003,3 hPa 0,0 l/m 4,5 km/h (1 Bft) S 180 0 min 4,2 C 5,5 C 4,5 km/h (1 Bft)
24.12.2021 18:20 6,2 C 7,7 C 5,0 C 5,8 C 5,1 C 0,0 C 83 % 91 % 1003,3 hPa 0,0 l/m 4,5 km/h (1 Bft) NO 45 0 min 3,5 C 5,1 C 3,9 km/h (1 Bft)
24.12.2021 18:25 5,6 C 7,7 C 4,6 C 5,3 C 4,6 C 0,0 C 84 % 91 % 1003,3 hPa 0,0 l/m 4,2 km/h (1 Bft) N 360 0 min 3,1 C 4,6 C 6,4 km/h (2 Bft)
24.12.2021 18:30 5,3 C 7,7 C 4,4 C 5,0 C 4,3 C 0,0 C 85 % 91 % 1004,2 hPa 0,0 l/m 3,9 km/h (1 Bft) N 360 0 min 3,0 C 4,3 C 6,9 km/h (2 Bft)
24.12.2021 18:35 5,1 C 7,8 C 4,2 C 4,9 C 4,6 C 0,0 C 85 % 92 % 1004,2 hPa 0,0 l/m 2,6 km/h (1 Bft) NO 45 0 min 2,8 C 4,6 C 0,0 km/h (0 Bft)
24.12.2021 18:40 4,9 C 7,7 C 4,0 C 4,7 C 4,4 C 0,0 C 86 % 92 % 1004,2 hPa 0,0 l/m 2,1 km/h (1 Bft) NO 45 0 min 2,8 C 4,4 C 2,7 km/h (1 Bft)
24.12.2021 18:45 4,4 C 7,8 C 3,7 C 4,3 C 4,1 C 0,0 C 86 % 92 % 1004,2 hPa 0,7 l/m 1,9 km/h (1 Bft) N-NO 22 0 min 2,3 C 4,1 C 3,7 km/h (1 Bft)
24.12.2021 18:50 4,3 C 7,8 C 3,6 C 4,2 C 3,9 C 0,0 C 86 % 92 % 1004,1 hPa 0,0 l/m 1,9 km/h (1 Bft) SO 135 0 min 2,2 C 3,9 C 2,7 km/h (1 Bft)
24.12.2021 18:55 4,0 C 7,9 C 3,3 C 3,9 C 3,6 C 0,0 C 86 % 92 % 1004,1 hPa 0,0 l/m 2,6 km/h (1 Bft) NW 315 0 min 1,9 C 3,6 C 0,0 km/h (0 Bft)
24.12.2021 19:00 3,8 C 7,9 C 3,1 C 3,6 C 3,3 C 0,0 C 86 % 92 % 1004,1 hPa 0,0 l/m 2,9 km/h (1 Bft) N-NO 22 0 min 1,7 C 3,3 C 3,4 km/h (1 Bft)
24.12.2021 19:05 3,5 C 7,9 C 2,9 C 3,4 C 3,1 C 0,0 C 87 % 92 % 1004,1 hPa 0,0 l/m 2,7 km/h (1 Bft) N-NW 337 0 min 1,5 C 3,1 C 5,3 km/h (1 Bft)
24.12.2021 19:10 3,3 C 7,9 C 2,7 C 3,2 C 2,9 C 0,0 C 87 % 92 % 1004,7 hPa 0,0 l/m 2,4 km/h (1 Bft) N 360 0 min 1,3 C 2,9 C 0,0 km/h (0 Bft)
24.12.2021 19:15 3,1 C 7,9 C 2,5 C 3,0 C 2,7 C 0,0 C 87 % 92 % 1004,7 hPa 0,0 l/m 1,4 km/h (1 Bft) N 360 0 min 1,2 C 2,7 C 2,3 km/h (1 Bft)
24.12.2021 19:20 3,0 C 7,9 C 2,4 C 2,8 C 2,5 C 0,0 C 87 % 93 % 1004,7 hPa 0,0 l/m 1,3 km/h (1 Bft) NW 315 0 min 1,1 C 2,5 C 4,3 km/h (1 Bft)
24.12.2021 19:25 2,8 C 7,9 C 2,3 C 2,7 C 2,4 C 0,0 C 87 % 93 % 1004,7 hPa 0,0 l/m 0,8 km/h (0 Bft) NW 315 0 min 0,9 C 2,4 C 0,0 km/h (0 Bft)
24.12.2021 19:30 2,7 C 7,9 C 2,2 C 2,6 C 2,3 C 0,0 C 87 % 93 % 1005,1 hPa 0,0 l/m 0,6 km/h (0 Bft) N-NO 22 0 min 0,8 C 2,3 C 3,7 km/h (1 Bft)
24.12.2021 19:35 2,5 C 7,9 C 2,0 C 2,4 C 2,1 C 0,0 C 88 % 92 % 1005,1 hPa 0,0 l/m 0,5 km/h (0 Bft) NW 315 0 min 0,7 C 2,1 C 0,0 km/h (0 Bft)
24.12.2021 19:40 2,4 C 7,9 C 1,9 C 2,3 C 2,0 C 0,0 C 88 % 92 % 1005,1 hPa 0,0 l/m 0,6 km/h (0 Bft) O-NO 67 0 min 0,6 C 2,0 C 0,0 km/h (0 Bft)
24.12.2021 19:45 2,3 C 7,9 C 1,9 C 2,2 C 2,0 C 0,0 C 88 % 93 % 1005,1 hPa 0,0 l/m 0,2 km/h (0 Bft) N-NW 337 0 min 0,5 C 2,0 C 2,4 km/h (1 Bft)
24.12.2021 19:50 2,2 C 7,9 C 1,8 C 2,1 C 1,9 C 0,0 C 88 % 93 % 1005,4 hPa 0,0 l/m 0,3 km/h (0 Bft) O 90 0 min 0,4 C 1,9 C 0,0 km/h (0 Bft)
24.12.2021 19:55 2,1 C 7,9 C 1,7 C 2,0 C 1,8 C 0,0 C 88 % 93 % 1005,4 hPa 0,0 l/m 1,0 km/h (0 Bft) O-NO 67 0 min 0,3 C 1,8 C 3,4 km/h (1 Bft)
24.12.2021 20:00 2,1 C 7,9 C 1,5 C 2,0 C 1,7 C 0,0 C 88 % 93 % 1005,4 hPa 0,7 l/m 1,0 km/h (0 Bft) O-NO 67 0 min 0,3 C 1,7 C 1,8 km/h (1 Bft)
24.12.2021 20:05 1,9 C 7,8 C 1,4 C 1,8 C 1,5 C 0,0 C 88 % 93 % 1005,4 hPa 0,0 l/m 0,6 km/h (0 Bft) O-NO 67 0 min 0,1 C 1,5 C 0,0 km/h (0 Bft)
24.12.2021 20:10 1,8 C 7,8 C 1,4 C 1,7 C 1,4 C 0,0 C 88 % 93 % 1006,1 hPa 0,0 l/m 0,2 km/h (0 Bft) W 270 0 min 0,0 C 1,4 C 0,0 km/h (0 Bft)
24.12.2021 20:15 1,7 C 7,8 C 1,3 C 1,6 C 1,4 C 0,0 C 88 % 93 % 1006,1 hPa 0,0 l/m 0,0 km/h (0 Bft) W-NW 292 0 min -0,1 C 1,4 C 0,0 km/h (0 Bft)
24.12.2021 20:20 1,7 C 7,9 C 1,3 C 1,6 C 1,4 C 0,0 C 88 % 93 % 1006,1 hPa 0,0 l/m 0,0 km/h (0 Bft) W-NW 292 0 min -0,1 C 1,4 C 0,0 km/h (0 Bft)
24.12.2021 20:25 1,7 C 7,8 C 1,2 C 1,6 C 1,3 C 0,0 C 88 % 93 % 1006,1 hPa 0,0 l/m 0,0 km/h (0 Bft) O-SO 112 0 min -0,1 C 1,3 C 0,0 km/h (0 Bft)
24.12.2021 20:30 1,6 C 7,8 C 1,1 C 1,5 C 1,2 C 0,0 C 88 % 93 % 1006,1 hPa 0,0 l/m 0,0 km/h (0 Bft) O-SO 112 0 min -0,2 C 1,2 C 0,0 km/h (0 Bft)
24.12.2021 20:35 1,5 C 7,8 C 1,1 C 1,4 C 1,1 C 0,0 C 88 % 93 % 1006,1 hPa 0,0 l/m 0,0 km/h (0 Bft) O-SO 112 0 min -0,3 C 1,1 C 0,0 km/h (0 Bft)
24.12.2021 20:40 1,5 C 7,8 C 1,1 C 1,3 C 1,0 C 0,0 C 88 % 93 % 1006,1 hPa 0,0 l/m 0,0 km/h (0 Bft) O-SO 112 0 min -0,3 C 1,0 C 0,0 km/h (0 Bft)
24.12.2021 20:45 1,3 C 7,8 C 1,1 C 1,2 C 1,0 C 0,0 C 88 % 93 % 1006,1 hPa 0,0 l/m 0,0 km/h (0 Bft) N 360 0 min -0,5 C 1,0 C 0,0 km/h (0 Bft)
24.12.2021 20:50 1,3 C 7,8 C 1,1 C 1,2 C 1,0 C 0,0 C 89 % 93 % 1006,7 hPa 0,0 l/m 0,0 km/h (0 Bft) N-NO 22 0 min -0,3 C 1,0 C 0,0 km/h (0 Bft)
24.12.2021 20:55 1,2 C 7,8 C 0,9 C 1,1 C 0,9 C 0,0 C 89 % 93 % 1006,7 hPa 0,0 l/m 0,0 km/h (0 Bft) N 360 0 min -0,4 C 0,9 C 0,0 km/h (0 Bft)
24.12.2021 21:00 1,3 C 7,8 C 0,8 C 1,1 C 0,8 C 0,0 C 89 % 93 % 1006,7 hPa 0,0 l/m 0,0 km/h (0 Bft) NW 315 0 min -0,3 C 0,8 C 0,0 km/h (0 Bft)
24.12.2021 21:05 1,2 C 7,8 C 0,7 C 1,0 C 0,7 C 0,0 C 89 % 93 % 1006,7 hPa 0,0 l/m 0,0 km/h (0 Bft) NW 315 0 min -0,4 C 0,7 C 0,0 km/h (0 Bft)
24.12.2021 21:10 1,1 C 7,8 C 0,7 C 1,0 C 0,7 C 0,0 C 89 % 93 % 1006,4 hPa 0,7 l/m 0,0 km/h (0 Bft) NW 315 0 min -0,5 C 0,7 C 0,0 km/h (0 Bft)
24.12.2021 21:15 1,1 C 7,8 C 0,7 C 0,9 C 0,6 C 0,0 C 89 % 93 % 1006,4 hPa 0,0 l/m 0,0 km/h (0 Bft) NW 315 0 min -0,5 C 0,6 C 0,0 km/h (0 Bft)
24.12.2021 21:20 1,1 C 7,8 C 0,6 C 0,9 C 0,6 C 0,0 C 89 % 93 % 1006,4 hPa 0,0 l/m 0,0 km/h (0 Bft) NW 315 0 min -0,5 C 0,6 C 0,0 km/h (0 Bft)
24.12.2021 21:25 0,9 C 7,8 C 0,5 C 0,8 C 0,5 C 0,0 C 89 % 94 % 1006,4 hPa 0,0 l/m 0,0 km/h (0 Bft) NW 315 0 min -0,7 C 0,5 C 0,0 km/h (0 Bft)
24.12.2021 21:30 0,9 C 7,8 C 0,5 C 0,8 C 0,5 C 0,0 C 89 % 94 % 1006,7 hPa 0,0 l/m 0,0 km/h (0 Bft) NW 315 0 min -0,7 C 0,5 C 0,0 km/h (0 Bft)
24.12.2021 21:35 0,8 C 7,8 C 0,4 C 0,7 C 0,5 C 0,0 C 89 % 94 % 1006,7 hPa 0,0 l/m 0,0 km/h (0 Bft) W-NW 292 0 min -0,8 C 0,5 C 0,0 km/h (0 Bft)
24.12.2021 21:40 0,9 C 7,8 C 0,4 C 0,7 C 0,4 C 0,0 C 89 % 94 % 1006,7 hPa 0,0 l/m 0,0 km/h (0 Bft) NW 315 0 min -0,7 C 0,4 C 0,0 km/h (0 Bft)
24.12.2021 21:45 0,8 C 7,8 C 0,3 C 0,7 C 0,4 C 0,0 C 89 % 94 % 1006,7 hPa 0,0 l/m 0,0 km/h (0 Bft) NW 315 0 min -0,8 C 0,4 C 0,0 km/h (0 Bft)
24.12.2021 21:50 0,7 C 7,8 C 0,3 C 0,6 C 0,4 C 0,0 C 89 % 94 % 1006,8 hPa 0,0 l/m 0,0 km/h (0 Bft) NW 315 0 min -0,9 C 0,4 C 0,0 km/h (0 Bft)
24.12.2021 21:55 0,7 C 7,8 C 0,3 C 0,6 C 0,3 C 0,0 C 89 % 94 % 1006,8 hPa 0,0 l/m 0,0 km/h (0 Bft) NW 315 0 min -0,9 C 0,3 C 0,0 km/h (0 Bft)
24.12.2021 22:00 0,7 C 7,7 C 0,3 C 0,6 C 0,3 C 0,0 C 89 % 94 % 1006,8 hPa 0,0 l/m 0,0 km/h (0 Bft) W-NW 292 0 min -0,9 C 0,3 C 0,0 km/h (0 Bft)
24.12.2021 22:05 0,7 C 7,7 C 0,2 C 0,6 C 0,3 C 0,0 C 89 % 94 % 1006,8 hPa 0,0 l/m 0,0 km/h (0 Bft) W-NW 292 0 min -0,9 C 0,3 C 0,0 km/h (0 Bft)
24.12.2021 22:10 0,5 C 7,7 C 0,2 C 0,4 C 0,3 C 0,0 C 89 % 94 % 1007,0 hPa 0,0 l/m 0,0 km/h (0 Bft) NO 45 0 min -1,1 C 0,3 C 0,0 km/h (0 Bft)
24.12.2021 22:15 0,5 C 7,7 C 0,2 C 0,4 C 0,3 C 0,0 C 89 % 94 % 1007,0 hPa 0,0 l/m 0,0 km/h (0 Bft) N-NW 337 0 min -1,1 C 0,3 C 0,0 km/h (0 Bft)
24.12.2021 22:20 0,4 C 7,7 C 0,1 C 0,4 C 0,3 C 0,0 C 89 % 94 % 1007,0 hPa 0,0 l/m 0,2 km/h (0 Bft) W-NW 292 0 min -1,2 C 0,3 C 0,0 km/h (0 Bft)
24.12.2021 22:25 0,4 C 7,7 C 0,1 C 0,4 C 0,3 C 0,0 C 89 % 94 % 1007,0 hPa 0,0 l/m 0,2 km/h (0 Bft) W-NW 292 0 min -1,2 C 0,3 C 0,0 km/h (0 Bft)
24.12.2021 22:30 0,4 C 7,7 C 0,1 C 0,4 C 0,3 C 0,0 C 89 % 94 % 1007,2 hPa 0,0 l/m 0,0 km/h (0 Bft) W-NW 292 0 min -1,2 C 0,3 C 0,0 km/h (0 Bft)
24.12.2021 22:35 0,4 C 7,7 C 0,1 C 0,4 C 0,3 C 0,0 C 89 % 94 % 1007,2 hPa 0,0 l/m 0,0 km/h (0 Bft) W-NW 292 0 min -1,2 C 0,3 C 0,0 km/h (0 Bft)
24.12.2021 22:40 0,4 C 7,7 C 0,1 C 0,4 C 0,3 C 0,0 C 89 % 94 % 1007,2 hPa 0,0 l/m 0,2 km/h (0 Bft) N-NW 337 0 min -1,2 C 0,3 C 2,1 km/h (1 Bft)
24.12.2021 22:45 0,3 C 7,7 C 0,1 C 0,3 C 0,3 C 0,0 C 89 % 94 % 1007,2 hPa 0,0 l/m 0,3 km/h (0 Bft) NW 315 0 min -1,3 C 0,3 C 0,0 km/h (0 Bft)
24.12.2021 22:50 0,3 C 7,7 C 0,1 C 0,3 C 0,3 C 0,0 C 89 % 94 % 1007,5 hPa 0,0 l/m 0,2 km/h (0 Bft) NW 315 0 min -1,3 C 0,3 C 0,0 km/h (0 Bft)
24.12.2021 22:55 0,3 C 7,7 C 0,1 C 0,3 C 0,3 C 0,0 C 89 % 94 % 1007,5 hPa 0,0 l/m 0,2 km/h (0 Bft) NW 315 0 min -1,3 C 0,3 C 0,0 km/h (0 Bft)
24.12.2021 23:00 0,2 C 7,7 C 0,1 C 0,3 C 0,3 C 0,1 C 89 % 94 % 1007,5 hPa 0,0 l/m 0,0 km/h (0 Bft) NW 315 0 min -1,4 C 0,3 C 0,0 km/h (0 Bft)
24.12.2021 23:05 0,3 C 7,7 C 0,0 C 0,3 C 0,3 C 0,0 C 89 % 94 % 1007,5 hPa 0,0 l/m 0,0 km/h (0 Bft) NW 315 0 min -1,3 C 0,3 C 0,0 km/h (0 Bft)
24.12.2021 23:10 0,3 C 7,7 C 0,0 C 0,3 C 0,3 C 0,0 C 89 % 94 % 1007,6 hPa 0,0 l/m 0,0 km/h (0 Bft) NW 315 0 min -1,3 C 0,3 C 0,0 km/h (0 Bft)
24.12.2021 23:15 0,1 C 7,7 C 0,0 C 0,3 C 0,3 C 0,2 C 89 % 94 % 1007,6 hPa 0,0 l/m 0,0 km/h (0 Bft) NW 315 0 min -1,5 C 0,3 C 0,0 km/h (0 Bft)
24.12.2021 23:20 0,1 C 7,7 C 0,0 C 0,3 C 0,3 C 0,2 C 89 % 94 % 1007,6 hPa 0,0 l/m 0,2 km/h (0 Bft) NW 315 0 min -1,5 C 0,3 C 0,0 km/h (0 Bft)
24.12.2021 23:25 0,1 C 7,7 C 0,0 C 0,3 C 0,3 C 0,2 C 89 % 94 % 1007,6 hPa 0,0 l/m 0,2 km/h (0 Bft) NW 315 0 min -1,5 C 0,3 C 0,0 km/h (0 Bft)
24.12.2021 23:30 0,0 C 7,7 C 0,0 C 0,3 C 0,3 C 0,3 C 89 % 94 % 1007,8 hPa 0,0 l/m 0,2 km/h (0 Bft) W 270 0 min -1,6 C 0,3 C 0,0 km/h (0 Bft)
24.12.2021 23:35 0,0 C 7,7 C 0,0 C 0,3 C 0,3 C 0,3 C 89 % 94 % 1007,8 hPa 0,0 l/m 0,2 km/h (0 Bft) W 270 0 min -1,6 C 0,3 C 0,0 km/h (0 Bft)
24.12.2021 23:40 0,0 C 7,6 C 0,0 C 0,3 C 0,3 C 0,3 C 89 % 94 % 1007,8 hPa 0,0 l/m 0,0 km/h (0 Bft) W 270 0 min -1,6 C 0,3 C 0,0 km/h (0 Bft)
24.12.2021 23:45 0,0 C 7,6 C -0,1 C 0,3 C 0,3 C 0,3 C 89 % 94 % 1007,8 hPa 0,0 l/m 0,2 km/h (0 Bft) N-NW 337 0 min -1,6 C 0,3 C 0,0 km/h (0 Bft)
24.12.2021 23:50 0,1 C 7,6 C -0,1 C 0,3 C 0,3 C 0,2 C 89 % 94 % 1007,6 hPa 0,0 l/m 0,3 km/h (0 Bft) N-NW 337 0 min -1,5 C 0,3 C 0,0 km/h (0 Bft)
24.12.2021 23:55 -0,1 C 7,6 C -0,1 C 0,3 C 0,3 C 0,4 C 89 % 94 % 1007,6 hPa 0,0 l/m 0,3 km/h (0 Bft) N-NW 337 0 min -1,7 C 0,3 C 0,0 km/h (0 Bft)
_ Min-Zeit 23:55 00:00 23:45 22:45 21:55 00:00 13:25 13:40 13:10 - 20:15 - - - 23:55 01:05 18:35
Minimum _ -0,1 C 5,2 C -0,1 C 0,3 C 0,3 C 0,0 C 81 % 86 % 1002,1 hPa - 0,0 km/h (0 Bft) - - - -1,7 C -0,7 C 0,0 km/h (0 Bft)
_ Max-Zeit 13:40 18:55 11:55 11:45 11:40 05:40 02:20 02:35 23:30 00:55 11:05 - - 08:30 11:00 13:00 10:35
Maximum _ 8,8 C 7,9 C 8,2 C 9,1 C 8,7 C 1,2 C 89 % 95 % 1007,8 hPa 0,7 l/m 14,8 km/h
SW (3 Bft)
- - 5 min 6,4 C 7,5 C 28,0 km/h
W-SW (4 Bft)
Durchschnitt _ 5,3 C 7,0 C 4,8 C 5,2 C 4,6 C 0,1 C 87 % 92 % 1003,9 hPa #13,1 l/m 6,8 km/h (2 Bft) SW - #5 min. 3,3 C 3,2 C 8,6 km/h (2 Bft)
2021 www.wetterstation-wechselburg.de